Location: Unspecified
(0.0000°N, 0.0000°E)
Time: 16:41:42
(UTC+00:00)

AD-A Canister/Altair 2 - Pass Details

Date: 30 April 2025
Orbit: 593 x 2295 km, 78.6° (Epoch: 12 May)

Event Time Altitude Azimuth Distance (km) Brightness Sun altitude
Rises 18:40:47 0° 171° (S) 5,810 11.3 -10.5°
Reaches altitude 10° 18:44:40 10° 164° (SSE) 4,862 10.8 -11.5°
Maximum altitude 18:56:47 43° 98° (E) 2,877 9.4 -14.4°
Drops below altitude 10° 19:07:24 10° 32° (NNE) 4,309 10.7 -16.9°
Sets 19:10:33 0° 25° (NNE) 5,113 11.1 -17.7°
